Humidity-temperature Sensor

Selected Measurement Type: Air Temperature

 
Air Temperature [°C]     6 entries per hour
Showing data from 2/28/2024 (09:00:00 Z) to 2/25/2024 (00:01:00 Z)
Previous Next [ Day | 3-Days | 7-Days ]
First Last
Prev [ Day | 3-Days | 7-Days ] Next
First Last

Start Time:     :
End Time:     :     
Time (in GMT) :00 :50 :40 :30 :20 :10
Previous Next [ Day | 3-Days | 7-Days ]
First Last
Prev [ Day | 3-Days | 7-Days ] Next
First Last


123 => good data
MM => data is determined as missing
-- => data not received/configured
Back to Top Back to Top
2/28/2024 09:00 to 8:10 26.72 26.94 26.72 26.77 26.81 26.72
2/28/2024 08:00 to 7:10 26.67 26.04 25.94 25.72 25.68 25.45
2/28/2024 07:00 to 6:10 25.21 24.94 25.03 24.82 24.41 24.01
2/28/2024 06:00 to 5:10 24.11 24.11 24.45 24.27 24.45 25.08
2/28/2024 05:00 to 4:10 25.53 25.68 25.59 25.68 25.67 25.68
2/28/2024 04:00 to 3:10 25.64 25.73 25.80 25.85 25.72 25.81
2/28/2024 03:00 to 2:10 26.02 26.23 26.19 25.70 25.98 25.92
2/28/2024 02:00 to 1:10 26.21 26.14 25.95 25.72 25.55 25.30
2/28/2024 01:00 to 0:10 25.26 25.22 25.31 25.34 25.24 25.15
2/28/2024 00:00 to 23:10 25.28 25.74 25.66 25.52 25.67 25.96
2/27/2024 23:00 to 22:10 25.86 25.62 25.81 25.73 25.77 25.75
2/27/2024 22:00 to 21:10 25.88 26.13 25.84 25.86 25.72 26.35
2/27/2024 21:00 to 20:10 26.60 26.91 26.99 27.16 26.85 26.29
2/27/2024 20:00 to 19:10 26.08 26.24 26.35 27.35 26.90 26.60
2/27/2024 19:00 to 18:10 26.70 26.33 26.74 26.78 26.58 26.28
2/27/2024 18:00 to 17:10 26.23 26.60 26.79 27.05 26.82 26.56
2/27/2024 17:00 to 16:10 27.13 27.30 27.16 27.23 26.83 26.48
2/27/2024 16:00 to 15:10 26.87 26.59 26.54 26.35 26.07 26.14
2/27/2024 15:00 to 14:10 25.35 25.85 26.11 26.17 26.10 26.14
2/27/2024 14:00 to 13:10 26.03 26.05 26.10 26.34 26.17 26.09
2/27/2024 13:00 to 12:10 25.66 25.74 25.77 25.78 25.81 25.93
2/27/2024 12:00 to 11:10 26.21 26.39 26.10 26.22 26.12 25.89
2/27/2024 11:00 to 10:10 25.72 25.81 25.67 25.58 25.34 25.48
2/27/2024 10:00 to 9:10 25.12 25.14 25.34 25.36 25.50 25.37
2/27/2024 09:00 to 8:10 25.19 24.72 25.21 25.34 25.57 25.32
2/27/2024 08:00 to 7:10 25.23 25.46 26.07 25.96 25.89 25.52
2/27/2024 07:00 to 6:10 25.73 25.79 25.92 25.99 26.08 26.00
2/27/2024 06:00 to 5:10 26.28 26.36 26.74 26.97 26.91 26.89
2/27/2024 05:00 to 4:10 26.94 26.70 26.65 26.59 26.49 26.35
2/27/2024 04:00 to 3:10 26.00 26.09 26.08 26.16 26.08 26.29
2/27/2024 03:00 to 2:10 26.21 26.00 26.02 26.45 27.11 27.16
2/27/2024 02:00 to 1:10 27.36 27.23 27.39 27.06 26.91 27.04
2/27/2024 01:00 to 0:10 27.05 26.95 26.92 26.83 27.10 27.08
2/27/2024 00:00 to 23:10 27.07 27.16 27.50 27.59 27.51 27.32
2/26/2024 23:00 to 22:10 27.40 27.24 27.21 27.29 27.37 27.07
2/26/2024 22:00 to 21:10 27.54 27.56 27.60 27.66 27.76 27.60
2/26/2024 21:00 to 20:10 27.66 27.68 27.63 27.55 27.47 27.30
2/26/2024 20:00 to 19:10 27.50 27.55 27.58 27.54 27.55 27.53
2/26/2024 19:00 to 18:10 27.53 27.30 27.43 27.57 27.60 27.44
2/26/2024 18:00 to 17:10 27.57 27.28 27.57 27.48 27.41 27.35
2/26/2024 17:00 to 16:10 27.46 27.37 27.47 27.38 27.34 27.26
2/26/2024 16:00 to 15:10 27.40 27.33 27.46 27.64 27.52 27.42
2/26/2024 15:00 to 14:10 27.46 27.53 27.50 27.45 27.46 27.55
2/26/2024 14:00 to 13:10 27.45 27.43 27.41 27.53 27.37 27.28
2/26/2024 13:00 to 12:10 27.21 27.38 27.21 27.24 27.11 27.01
2/26/2024 12:00 to 11:10 27.18 26.96 27.30 27.10 27.17 27.16
2/26/2024 11:00 to 10:10 27.18 27.17 27.22 27.14 27.00 27.12
2/26/2024 10:00 to 9:10 27.00 27.08 27.00 27.05 27.10 26.92
2/26/2024 09:00 to 8:10 27.03 26.99 26.96 26.99 27.10 27.06
2/26/2024 08:00 to 7:10 27.10 27.08 27.21 27.09 27.02 27.08
2/26/2024 07:00 to 6:10 27.25 26.97 27.23 27.33 27.42 27.16
2/26/2024 06:00 to 5:10 27.37 27.32 27.35 27.42 27.11 27.39
2/26/2024 05:00 to 4:10 27.27 27.44 27.45 27.43 27.45 27.38
2/26/2024 04:00 to 3:10 27.50 27.29 27.55 27.40 27.44 27.38
2/26/2024 03:00 to 2:10 27.32 27.53 27.41 27.39 27.35 27.48
2/26/2024 02:00 to 1:10 27.44 27.43 27.23 27.41 27.36 27.38
2/26/2024 01:00 to 0:10 27.42 27.31 27.31 27.47 27.47 27.51
2/26/2024 00:00 to 23:10 27.51 27.63 27.71 27.38 27.49 27.34
2/25/2024 23:00 to 22:10 27.52 27.57 27.59 27.74 27.61 27.68
2/25/2024 22:00 to 21:10 27.40 27.45 27.30 27.50 27.42 27.48
2/25/2024 21:00 to 20:10 27.45 27.52 27.47 27.45 27.49 27.61
2/25/2024 20:00 to 19:10 27.41 27.61 27.63 27.62 27.52 27.40
2/25/2024 19:00 to 18:10 27.41 27.50 27.48 27.50 27.42 27.49
2/25/2024 18:00 to 17:10 27.43 27.40 27.43 27.42 27.29 27.29
2/25/2024 17:00 to 16:10 27.19 27.33 27.16 27.27 27.41 27.54
2/25/2024 16:00 to 15:10 27.54 27.38 27.28 27.30 27.33 27.33
2/25/2024 15:00 to 14:10 27.30 27.31 27.31 27.25 27.10 27.22
2/25/2024 14:00 to 13:10 27.01 26.80 26.80 26.92 27.05 27.09
2/25/2024 13:00 to 12:10 27.03 27.21 27.09 26.97 27.01 27.07
2/25/2024 12:00 to 11:10 27.21 27.34 27.50 27.21 26.98 26.86
2/25/2024 11:00 to 10:10 27.00 27.14 27.11 27.30 26.94 27.02
2/25/2024 10:00 to 9:10 27.02 27.40 27.26 27.25 27.14 27.21
2/25/2024 09:00 to 8:10 27.21 27.33 27.16 27.25 27.10 27.03
2/25/2024 08:00 to 7:10 27.11 27.07 27.42 27.28 27.31 27.33
2/25/2024 07:00 to 6:10 27.21 27.40 27.36 27.52 27.47 27.37
2/25/2024 06:00 to 5:10 27.40 27.25 27.48 27.42 27.46 27.52
2/25/2024 05:00 to 4:10 27.54 27.43 27.45 27.46 27.64 27.45
2/25/2024 04:00 to 3:10 27.32 27.51 27.39 27.38 27.46 27.31
2/25/2024 03:00 to 2:10 27.38 27.36 27.53 27.48 27.55 27.46
2/25/2024 02:00 to 1:10 27.49 27.70 27.44 27.45 27.53 27.42
2/25/2024 01:00 to 0:10 27.36 27.35 27.29 27.33 27.44 27.72